AAL956A SKCL-SKBG

Flight info

Callsign AAL956A
Flight time 0h 48m
Altitude 37000
Route ULQ1K ULQ UW1 KOVBU/N0405F230 A567 OPROG OPROG1C
Aircraft B738/M-SDE2E3FGHIRWXY/LB1

Departure

Time 2026-04-26 17:47
Airport Alfonso Bonilla Aragon International Airport (SKCL)

Arrival

Time 2026-04-26 18:35
Airport Palonegro Airport (SKBG)
Time Latitude Longitude Altitude Speed Heading
2026-04-26 17:26 3.53739 -76.38634 3163 ft 0 kts 229°
2026-04-26 17:34 3.53749 -76.38622 3163 ft 2 kts 230°
2026-04-26 17:35 3.53760 -76.38609 3165 ft 2 kts 229°
2026-04-26 17:35 3.53771 -76.38597 3163 ft 2 kts 226°
2026-04-26 17:35 3.53783 -76.38586 3166 ft 2 kts 208°
2026-04-26 17:35 3.53788 -76.38583 3166 ft 2 kts 185°
2026-04-26 17:36 3.53799 -76.38585 3166 ft 0 kts 150°
2026-04-26 17:42 3.53778 -76.38573 3165 ft 6 kts 150°
2026-04-26 17:42 3.53733 -76.38547 3163 ft 9 kts 150°
2026-04-26 17:42 3.53675 -76.38513 3163 ft 11 kts 153°
2026-04-26 17:42 3.53599 -76.38486 3164 ft 12 kts 162°
2026-04-26 17:43 3.53511 -76.38474 3162 ft 13 kts 190°
2026-04-26 17:43 3.53424 -76.38489 3162 ft 13 kts 189°
2026-04-26 17:43 3.53338 -76.38503 3162 ft 12 kts 188°
2026-04-26 17:43 3.53254 -76.38516 3161 ft 12 kts 189°
2026-04-26 17:44 3.53172 -76.38530 3163 ft 12 kts 193°
2026-04-26 17:44 3.53093 -76.38549 3162 ft 11 kts 193°
2026-04-26 17:44 3.53016 -76.38561 3161 ft 11 kts 176°
2026-04-26 17:44 3.52984 -76.38509 3160 ft 0 kts 109°
2026-04-26 17:45 3.52984 -76.38508 3160 ft 1 kts 109°
2026-04-26 17:45 3.52979 -76.38487 3160 ft 6 kts 96°
2026-04-26 17:45 3.52998 -76.38429 3159 ft 12 kts 72°
2026-04-26 17:46 3.53034 -76.38392 3159 ft 0 kts 12°
2026-04-26 17:46 3.53155 -76.38370 3159 ft 54 kts 10°
2026-04-26 17:46 3.53816 -76.38258 3167 ft 135 kts 10°
2026-04-26 17:46 3.54962 -76.38071 3308 ft 191 kts
2026-04-26 17:47 3.56356 -76.37908 4127 ft 206 kts
2026-04-26 17:47 3.57305 -76.37860 4734 ft 205 kts
2026-04-26 17:47 3.59175 -76.37836 5898 ft 204 kts
2026-04-26 17:47 3.60638 -76.37518 6213 ft 231 kts 19°
2026-04-26 17:48 3.62232 -76.36920 6457 ft 258 kts 19°
2026-04-26 17:48 3.63994 -76.36269 6787 ft 278 kts 19°
2026-04-26 17:48 3.65839 -76.35617 7404 ft 283 kts 18°
2026-04-26 17:48 3.67720 -76.34981 8160 ft 288 kts 18°
2026-04-26 17:49 3.69631 -76.34358 9089 ft 289 kts 17°
2026-04-26 17:49 3.71566 -76.33744 9963 ft 294 kts 17°
2026-04-26 17:49 3.73536 -76.33129 10488 ft 311 kts 17°
2026-04-26 17:49 3.75699 -76.32462 10662 ft 338 kts 17°
2026-04-26 17:50 3.78013 -76.31754 11013 ft 354 kts 17°
2026-04-26 17:50 3.80401 -76.31026 11650 ft 360 kts 17°
2026-04-26 17:50 3.82818 -76.30292 12396 ft 364 kts 17°
2026-04-26 17:50 3.85257 -76.29553 13116 ft 368 kts 17°
2026-04-26 17:51 3.87690 -76.28816 13799 ft 372 kts 16°
2026-04-26 17:51 3.90182 -76.28062 14414 ft 376 kts 16°
2026-04-26 17:51 3.92706 -76.27298 15062 ft 379 kts 16°
2026-04-26 17:51 3.95238 -76.26532 15697 ft 382 kts 16°
2026-04-26 17:52 3.97801 -76.25755 16317 ft 386 kts 16°
2026-04-26 17:52 4.00381 -76.24974 16924 ft 389 kts 16°
2026-04-26 17:52 4.02992 -76.24184 17529 ft 393 kts 16°
2026-04-26 17:52 4.05618 -76.23384 18129 ft 396 kts 18°
2026-04-26 17:53 4.08072 -76.22099 18613 ft 402 kts 38°
2026-04-26 17:53 4.09977 -76.20054 19152 ft 405 kts 56°
2026-04-26 17:53 4.11204 -76.17515 19708 ft 406 kts 68°
2026-04-26 17:54 4.13214 -76.12183 20706 ft 412 kts 69°
2026-04-26 17:54 4.14204 -76.09511 21206 ft 414 kts 69°
2026-04-26 17:54 4.15223 -76.06805 21698 ft 416 kts 69°
2026-04-26 17:54 4.16262 -76.04086 22180 ft 419 kts 69°
2026-04-26 17:55 4.17313 -76.01358 22653 ft 421 kts 69°
2026-04-26 17:55 4.18375 -75.98614 23139 ft 423 kts 69°
2026-04-26 17:55 4.19441 -75.95859 23593 ft 426 kts 69°
2026-04-26 17:55 4.20515 -75.93083 23969 ft 428 kts 69°
2026-04-26 17:56 4.21595 -75.90300 24356 ft 430 kts 69°
2026-04-26 17:56 4.23807 -75.84709 25146 ft 434 kts 69°
2026-04-26 17:57 4.26050 -75.79056 25794 ft 439 kts 69°
2026-04-26 17:57 4.27183 -75.76196 26143 ft 441 kts 69°
2026-04-26 17:57 4.28303 -75.73367 26463 ft 444 kts 69°
2026-04-26 17:57 4.29443 -75.70480 26793 ft 446 kts 69°
2026-04-26 17:58 4.32882 -75.61737 27671 ft 452 kts 69°
2026-04-26 17:59 4.35186 -75.55868 28271 ft 456 kts 69°
2026-04-26 17:59 4.36350 -75.52909 28572 ft 458 kts 69°
2026-04-26 17:59 4.37536 -75.49937 28853 ft 460 kts 68°
2026-04-26 17:59 4.38983 -75.47067 29110 ft 462 kts 62°
2026-04-26 18:00 4.40569 -75.44253 29372 ft 464 kts 61°
2026-04-26 18:00 4.42184 -75.41442 29619 ft 466 kts 61°
2026-04-26 18:00 4.43803 -75.38624 29868 ft 468 kts 61°
2026-04-26 18:00 4.45431 -75.35769 30123 ft 470 kts 61°
2026-04-26 18:01 4.47025 -75.32953 30335 ft 471 kts 62°
2026-04-26 18:01 4.48639 -75.30091 30538 ft 473 kts 62°
2026-04-26 18:01 4.50259 -75.27214 30789 ft 473 kts 62°
2026-04-26 18:01 4.51880 -75.24331 31109 ft 471 kts 62°
2026-04-26 18:02 4.53486 -75.21469 31416 ft 471 kts 62°
2026-04-26 18:02 4.54545 -75.19578 31594 ft 471 kts 61°
2026-04-26 18:02 4.56692 -75.15742 31966 ft 471 kts 62°
2026-04-26 18:02 4.58292 -75.12880 32267 ft 471 kts 61°
2026-04-26 18:03 4.59891 -75.10019 32577 ft 470 kts 61°
2026-04-26 18:03 4.61486 -75.07164 32882 ft 470 kts 62°
2026-04-26 18:03 4.63082 -75.04309 33190 ft 469 kts 62°
2026-04-26 18:03 4.64659 -75.01487 33479 ft 469 kts 61°
2026-04-26 18:04 4.66254 -74.98635 33768 ft 469 kts 62°
2026-04-26 18:04 4.67848 -74.95784 34051 ft 469 kts 61°
2026-04-26 18:04 4.69441 -74.92930 34313 ft 468 kts 61°
2026-04-26 18:05 4.72625 -74.87201 34752 ft 469 kts 61°
2026-04-26 18:05 4.74213 -74.84344 35012 ft 469 kts 61°
2026-04-26 18:05 4.75808 -74.81490 35270 ft 469 kts 61°
2026-04-26 18:05 4.77351 -74.78607 35474 ft 469 kts 66°
2026-04-26 18:06 4.78510 -74.75553 35680 ft 468 kts 74°
2026-04-26 18:06 4.79190 -74.72365 35953 ft 465 kts 81°
2026-04-26 18:06 4.79639 -74.69200 36240 ft 464 kts 82°
2026-04-26 18:06 4.80060 -74.65988 36436 ft 465 kts 83°
2026-04-26 18:07 4.80480 -74.62767 36616 ft 467 kts 82°
2026-04-26 18:07 4.80913 -74.59527 36871 ft 467 kts 82°
2026-04-26 18:07 4.81357 -74.56288 36926 ft 470 kts 82°
2026-04-26 18:08 4.82266 -74.49800 36949 ft 467 kts 82°
2026-04-26 18:08 4.83164 -74.43364 37028 ft 464 kts 82°
2026-04-26 18:09 4.84075 -74.36969 37099 ft 463 kts 79°
2026-04-26 18:09 4.85045 -74.33909 37147 ft 463 kts 62°
2026-04-26 18:09 4.86782 -74.31241 37147 ft 464 kts 48°
2026-04-26 18:09 4.89170 -74.29076 37143 ft 464 kts 33°
2026-04-26 18:10 4.91866 -74.27285 37142 ft 467 kts 32°
2026-04-26 18:10 4.97381 -74.23718 37146 ft 474 kts 32°
2026-04-26 18:11 5.02903 -74.20067 37122 ft 475 kts 33°
2026-04-26 18:11 5.08373 -74.16376 37086 ft 476 kts 33°
2026-04-26 18:12 5.13853 -74.12656 37028 ft 475 kts 33°
2026-04-26 18:12 5.19342 -74.08948 36995 ft 474 kts 33°
2026-04-26 18:13 5.24813 -74.05269 36991 ft 472 kts 32°
2026-04-26 18:13 5.30220 -74.01606 37003 ft 470 kts 32°
2026-04-26 18:14 5.35628 -73.97925 36999 ft 468 kts 32°
2026-04-26 18:14 5.41009 -73.94261 37002 ft 467 kts 32°
2026-04-26 18:15 5.46382 -73.90589 37001 ft 467 kts 32°
2026-04-26 18:15 5.49057 -73.88763 36556 ft 473 kts 33°
2026-04-26 18:15 5.51784 -73.86913 36024 ft 471 kts 33°
2026-04-26 18:15 5.54520 -73.85106 35361 ft 471 kts 31°
2026-04-26 18:16 5.57365 -73.83437 34592 ft 475 kts 29°
2026-04-26 18:16 5.63199 -73.80251 33023 ft 478 kts 29°
2026-04-26 18:16 5.66119 -73.78650 32329 ft 477 kts 29°
2026-04-26 18:17 5.69005 -73.77045 31813 ft 471 kts 30°
2026-04-26 18:17 5.71855 -73.75441 31268 ft 467 kts 30°
2026-04-26 18:17 5.74670 -73.73845 30741 ft 463 kts 30°
2026-04-26 18:17 5.77460 -73.72259 30202 ft 459 kts 30°
2026-04-26 18:18 5.80194 -73.70701 29617 ft 455 kts 30°
2026-04-26 18:18 5.82935 -73.69140 29027 ft 450 kts 30°
2026-04-26 18:18 5.85644 -73.67597 28484 ft 445 kts 30°
2026-04-26 18:18 5.88325 -73.66067 27929 ft 440 kts 30°
2026-04-26 18:19 5.90978 -73.64550 27404 ft 436 kts 30°
2026-04-26 18:19 5.93607 -73.63053 26880 ft 432 kts 29°
2026-04-26 18:19 5.96219 -73.61578 26364 ft 428 kts 29°
2026-04-26 18:19 5.98806 -73.60121 25889 ft 424 kts 29°
2026-04-26 18:20 6.01342 -73.58705 25401 ft 420 kts 29°
2026-04-26 18:20 6.03885 -73.57286 24892 ft 417 kts 29°
2026-04-26 18:20 6.06431 -73.55864 24354 ft 415 kts 28°
2026-04-26 18:20 6.07283 -73.55388 24172 ft 415 kts 28°
2026-04-26 18:21 6.11458 -73.53036 23220 ft 412 kts 29°
2026-04-26 18:21 6.13947 -73.51626 22658 ft 409 kts 29°
2026-04-26 18:21 6.16418 -73.50223 22140 ft 405 kts 29°
2026-04-26 18:21 6.18862 -73.48834 21612 ft 402 kts 29°
2026-04-26 18:22 6.21258 -73.47472 21119 ft 398 kts 28°
2026-04-26 18:22 6.23666 -73.46103 20614 ft 395 kts 28°
2026-04-26 18:22 6.26050 -73.44748 20126 ft 392 kts 28°
2026-04-26 18:22 6.28423 -73.43399 19618 ft 390 kts 28°
2026-04-26 18:23 6.30783 -73.42058 19115 ft 388 kts 28°
2026-04-26 18:23 6.32333 -73.41179 18790 ft 386 kts 28°
2026-04-26 18:23 6.34674 -73.39849 18299 ft 384 kts 27°
2026-04-26 18:23 6.37746 -73.38101 17578 ft 381 kts 28°
2026-04-26 18:24 6.40038 -73.36795 17084 ft 377 kts 28°
2026-04-26 18:24 6.42309 -73.35501 16591 ft 374 kts 28°
2026-04-26 18:24 6.43830 -73.34633 16278 ft 371 kts 28°
2026-04-26 18:24 6.46072 -73.33354 15803 ft 368 kts 28°
2026-04-26 18:25 6.48291 -73.32086 15326 ft 365 kts 28°
2026-04-26 18:25 6.50460 -73.30841 14876 ft 363 kts 28°
2026-04-26 18:25 6.52651 -73.29583 14399 ft 361 kts 28°
2026-04-26 18:25 6.54834 -73.28339 13935 ft 359 kts 28°
2026-04-26 18:26 6.57008 -73.27109 13432 ft 357 kts 28°
2026-04-26 18:26 6.59161 -73.25891 12953 ft 353 kts 28°
2026-04-26 18:26 6.61295 -73.24683 12492 ft 350 kts 28°
2026-04-26 18:26 6.63404 -73.23486 12040 ft 347 kts 28°
2026-04-26 18:27 6.65491 -73.22293 11598 ft 343 kts 28°
2026-04-26 18:27 6.67557 -73.21110 11263 ft 337 kts 28°
2026-04-26 18:27 6.69566 -73.19968 11121 ft 325 kts 27°
2026-04-26 18:27 6.71507 -73.18876 10964 ft 314 kts 26°
2026-04-26 18:28 6.73391 -73.17820 10719 ft 308 kts 26°
2026-04-26 18:28 6.75230 -73.16788 10426 ft 304 kts 26°
2026-04-26 18:28 6.77068 -73.15747 10131 ft 300 kts 27°
2026-04-26 18:28 6.78876 -73.14713 9853 ft 293 kts 27°
2026-04-26 18:29 6.80599 -73.13720 9536 ft 282 kts 26°
2026-04-26 18:29 6.82274 -73.12759 9257 ft 271 kts 26°
2026-04-26 18:29 6.83885 -73.11842 8968 ft 261 kts 26°
2026-04-26 18:29 6.85423 -73.10974 8708 ft 252 kts 25°
2026-04-26 18:30 6.86930 -73.10130 8453 ft 243 kts 25°
2026-04-26 18:30 6.88449 -73.09508 8253 ft 231 kts 358°
2026-04-26 18:30 6.89994 -73.09834 8016 ft 228 kts 332°
2026-04-26 18:30 6.91424 -73.10451 7785 ft 216 kts 332°
2026-04-26 18:31 6.92770 -73.11016 7553 ft 204 kts 330°
2026-04-26 18:31 6.94041 -73.11550 7351 ft 197 kts 330°
2026-04-26 18:31 6.95310 -73.12079 7184 ft 200 kts 331°
2026-04-26 18:31 6.96634 -73.12601 6943 ft 208 kts 333°
2026-04-26 18:32 6.98006 -73.13099 6702 ft 210 kts 334°
2026-04-26 18:32 6.99366 -73.13597 6422 ft 205 kts 333°
2026-04-26 18:32 7.00673 -73.14085 6136 ft 196 kts 333°
2026-04-26 18:32 7.01926 -73.14561 5867 ft 189 kts 332°
2026-04-26 18:33 7.03146 -73.15033 5632 ft 188 kts 332°
2026-04-26 18:33 7.04357 -73.15488 5390 ft 186 kts 333°
2026-04-26 18:33 7.05566 -73.15930 5157 ft 181 kts 333°
2026-04-26 18:33 7.06698 -73.16346 4927 ft 170 kts 331°
2026-04-26 18:34 7.07764 -73.16747 4735 ft 156 kts 327°
2026-04-26 18:34 7.08734 -73.17138 4506 ft 144 kts 327°
2026-04-26 18:34 7.09671 -73.17395 4232 ft 134 kts 348°
2026-04-26 18:34 7.10529 -73.17658 4118 ft 126 kts 335°
2026-04-26 18:35 7.11367 -73.17990 3998 ft 129 kts 339°
2026-04-26 18:35 7.12178 -73.18298 3883 ft 118 kts 339°
2026-04-26 18:35 7.12810 -73.18526 3890 ft 67 kts 339°
2026-04-26 18:35 7.13030 -73.18611 3896 ft 23 kts 338°
2026-04-26 18:36 7.13176 -73.18665 3901 ft 22 kts 335°
2026-04-26 18:36 7.13292 -73.18681 3902 ft 1 kts 52°
2026-04-26 18:36 7.13294 -73.18660 3902 ft 5 kts 97°
2026-04-26 18:36 7.13267 -73.18634 3902 ft 6 kts 161°
2026-04-26 18:37 7.13218 -73.18637 3899 ft 8 kts 201°
2026-04-26 18:37 7.13153 -73.18651 3899 ft 11 kts 186°
2026-04-26 18:37 7.13074 -73.18635 3897 ft 13 kts 159°
2026-04-26 18:37 7.12968 -73.18591 3896 ft 20 kts 154°
2026-04-26 18:38 7.12921 -73.18468 3890 ft 20 kts 115°
2026-04-26 18:38 7.12820 -73.18372 3890 ft 20 kts 139°
2026-04-26 18:38 7.12723 -73.18279 3887 ft 19 kts 117°
2026-04-26 18:38 7.12700 -73.18239 3885 ft 6 kts 122°
2026-04-26 18:39 7.12691 -73.18196 3885 ft 7 kts 98°
2026-04-26 18:39 7.12706 -73.18159 3884 ft 7 kts 18°
2026-04-26 18:39 7.12710 -73.18158 3885 ft 0 kts 14°
2026-04-26 18:39 7.12716 -73.18157 3886 ft 3 kts 11°
2026-04-26 18:40 7.12720 -73.18156 3886 ft 0 kts